Date String (YYYY-MM-DD hh:mm:ss) UTC,Instrument flags,absolute air pressure of the measurement (hPa),sample flow rate (lpm),inlet stack bypass flow (lpm),air temperature of the measurement (°C),ambient temperature measured by the external sensor (°C),aerosol sample conditioner tube jacket temperature (°C),OPC LED temperature (°C),internal box temperature (°C),relative humidity of the measurement (%),span deviation,mass concentration of particles derived from Lorenz-Mie calculation of OPC scattering (μg/m³),mass concentration of particles derived from Lorenz-Mie calculation of OPC scattering (μg/m³),mass concentration of particles derived from Lorenz-Mie calculation of OPC scattering (μg/m³)
DateTimeUTC,F1_M11,P_M11,Q1_M11,Q2_M11,T1_M11,T2_M11,T3_M11,T4_M11,T5_M11,U1_M11,ZSPAN_M11,X0_M11,X2_M11,X1_M11
2024-02-27 05:00:00,SystemResetWarning,0814.4,4.99,000.00,022.0,021.1,000.0,030.6,023.8,13.2,0000.0,0005.93,0001.94,0000.85
2024-02-27 05:01:00,SystemResetWarning,0814.5,5.00,000.00,022.0,021.1,000.0,030.5,023.8,13.3,0000.0,0006.12,0001.92,0000.86
2024-02-27 05:02:00,SystemResetWarning,0814.5,5.00,000.00,022.0,021.1,000.0,030.5,023.8,13.3,0000.0,0005.61,0001.81,0000.85
2024-02-27 05:03:00,SystemResetWarning,0814.4,5.01,000.00,022.0,021.1,000.0,030.5,023.7,13.4,0000.0,0005.67,0001.84,0000.85
2024-02-27 05:04:00,SystemResetWarning,0814.4,5.01,000.00,022.0,021.1,000.0,030.5,023.7,13.4,0000.0,0006.62,0001.81,0000.86
2024-02-27 05:05:00,SystemResetWarning,0814.3,5.00,000.00,022.0,021.1,000.0,030.5,023.7,13.5,0000.0,0007.63,0001.79,0000.86
2024-02-27 05:06:00,SystemResetWarning,0814.4,5.00,000.00,022.0,021.1,000.0,030.5,023.7,13.5,0000.0,0007.59,0001.71,0000.85
2024-02-27 05:07:00,SystemResetWarning,0814.4,4.99,000.00,022.0,021.1,000.0,030.5,023.7,13.6,0000.0,0007.46,0001.66,0000.84
2024-02-27 05:08:00,SystemResetWarning,0814.4,4.99,000.00,022.0,021.1,000.0,030.5,023.7,13.6,0000.0,0007.50,0001.70,0000.84
2024-02-27 05:09:00,SystemResetWarning,0814.5,5.01,000.00,022.0,021.1,000.0,030.5,023.7,13.5,0000.0,0008.10,0001.75,0000.84
2024-02-27 05:10:00,SystemResetWarning,0814.4,5.01,000.00,022.0,021.1,000.0,030.4,023.7,13.5,0000.0,0008.09,0001.82,0000.84
2024-02-27 05:11:00,SystemResetWarning,0814.5,5.01,000.00,022.0,021.1,000.0,030.4,023.7,13.5,0000.0,0007.50,0001.80,0000.84
2024-02-27 05:12:00,SystemResetWarning,0814.5,4.98,000.00,022.0,021.1,000.0,030.4,023.7,13.5,0000.0,0007.28,0001.75,0000.83
2024-02-27 05:13:00,SystemResetWarning,0814.5,5.00,000.00,021.9,021.1,000.0,030.4,023.7,13.5,0000.0,0007.39,0001.81,0000.84
2024-02-27 05:14:00,SystemResetWarning,0814.5,5.00,000.00,021.9,021.1,000.0,030.4,023.7,13.5,0000.0,0007.28,0001.73,0000.83
2024-02-27 05:15:00,SystemResetWarning,0814.5,5.00,000.00,021.9,021.1,000.0,030.4,023.7,13.6,0000.0,0006.43,0001.69,0000.82
2024-02-27 05:16:00,SystemResetWarning,0814.6,5.00,000.00,021.9,021.1,000.0,030.4,023.7,13.7,0000.0,0005.24,0001.66,0000.80
2024-02-27 05:17:00,SystemResetWarning,0814.6,5.00,000.00,021.9,021.1,000.0,030.4,023.7,13.8,0000.0,0004.90,0001.64,0000.79
2024-02-27 05:18:00,SystemResetWarning,0814.6,5.01,000.00,021.9,021.0,000.0,030.4,023.7,13.8,0000.0,0005.15,0001.71,0000.80
2024-02-27 05:19:00,SystemResetWarning,0814.6,4.99,000.00,021.9,021.0,000.0,030.4,023.7,13.9,0000.0,0005.07,0001.69,0000.79
2024-02-27 05:20:00,SystemResetWarning,0814.7,4.99,000.00,021.9,021.0,000.0,030.4,023.7,14.0,0000.0,0003.82,0001.60,0000.78
2024-02-27 05:21:00,SystemResetWarning,0814.7,4.99,000.00,021.9,021.0,000.0,030.4,023.7,14.0,0000.0,0004.08,0001.58,0000.77
2024-02-27 05:22:00,SystemResetWarning,0814.7,4.99,000.00,021.9,021.0,000.0,030.4,023.7,14.0,0000.0,0004.93,0001.67,0000.77
2024-02-27 05:23:00,SystemResetWarning,0814.7,5.00,000.00,021.9,021.0,000.0,030.4,023.7,14.0,0000.0,0006.31,0001.72,0000.77
2024-02-27 05:24:00,SystemResetWarning,0814.7,5.00,000.00,021.9,021.0,000.0,030.4,023.7,14.1,0000.0,0007.32,0001.66,0000.77
2024-02-27 05:25:00,SystemResetWarning,0814.7,5.01,000.00,021.9,021.0,000.0,030.4,023.7,14.1,0000.0,0007.41,0001.69,0000.78
2024-02-27 05:26:00,SystemResetWarning,0814.8,5.01,000.00,021.9,021.0,000.0,030.3,023.6,14.1,0000.0,0007.34,0001.71,0000.79
2024-02-27 05:27:00,SystemResetWarning,0814.8,5.00,000.00,021.9,021.0,000.0,030.3,023.7,14.2,0000.0,0007.35,0001.74,0000.80
2024-02-27 05:28:00,SystemResetWarning,0814.8,4.99,000.00,021.9,021.0,000.0,030.3,023.7,14.2,0000.0,0007.31,0001.71,0000.80
2024-02-27 05:29:00,SystemResetWarning,0814.8,5.00,000.00,021.9,021.0,000.0,030.3,023.7,14.3,0000.0,0007.12,0001.67,0000.80
2024-02-27 05:30:00,SystemResetWarning,0814.8,5.01,000.00,021.9,021.0,000.0,030.3,023.6,14.3,0000.0,0007.07,0001.64,0000.81
2024-02-27 05:31:00,SystemResetWarning,0814.9,5.01,000.00,021.9,021.0,000.0,030.3,023.6,14.4,0000.0,0007.10,0001.64,0000.81
2024-02-27 05:32:00,SystemResetWarning,0814.9,5.00,000.00,021.9,021.0,000.0,030.3,023.6,14.5,0000.0,0007.52,0001.63,0000.82
2024-02-27 05:33:00,SystemResetWarning,0814.9,4.98,000.00,021.9,021.0,000.0,030.3,023.6,14.6,0000.0,0007.71,0001.61,0000.83
2024-02-27 05:34:00,SystemResetWarning,0814.9,5.00,000.00,021.9,021.0,000.0,030.3,023.6,14.5,0000.0,0007.12,0001.62,0000.83
2024-02-27 05:35:00,SystemResetWarning,0814.9,5.01,000.00,021.9,021.0,000.0,030.3,023.6,14.7,0000.0,0006.03,0001.67,0000.83
2024-02-27 05:36:00,SystemResetWarning,0814.9,5.01,000.00,021.9,021.0,000.0,030.3,023.6,14.6,0000.0,0005.95,0001.68,0000.82
2024-02-27 05:37:00,SystemResetWarning,0814.9,4.99,000.00,021.9,021.0,000.0,030.3,023.6,14.7,0000.0,0005.73,0001.65,0000.82
2024-02-27 05:38:00,SystemResetWarning,0814.9,4.99,000.00,021.9,021.0,000.0,030.3,023.7,14.9,0000.0,0005.60,0001.62,0000.82
2024-02-27 05:39:00,SystemResetWarning,0814.9,5.01,000.00,021.9,021.0,000.0,030.3,023.7,14.9,0000.0,0005.75,0001.69,0000.82
2024-02-27 05:40:00,SystemResetWarning,0814.9,5.01,000.00,021.9,021.0,000.0,030.3,023.7,14.8,0000.0,0006.03,0001.77,0000.82
2024-02-27 05:41:00,SystemResetWarning,0814.9,4.99,000.00,021.9,021.0,000.0,030.3,023.6,15.1,0000.0,0005.93,0001.74,0000.82
2024-02-27 05:42:00,SystemResetWarning,0814.9,4.99,000.00,021.9,021.0,000.0,030.3,023.6,16.1,0000.0,0005.78,0001.72,0000.82
2024-02-27 05:43:00,SystemResetWarning,0814.8,5.00,000.00,021.9,021.0,000.0,030.3,023.6,16.4,0000.0,0005.45,0001.69,0000.81
2024-02-27 05:44:00,SystemResetWarning,0814.8,5.00,000.00,021.9,021.0,000.0,030.3,023.6,16.7,0000.0,0004.58,0001.64,0000.80
2024-02-27 05:45:00,SystemResetWarning,0814.7,5.00,000.00,021.8,021.0,000.0,030.3,023.6,16.7,0000.0,0003.84,0001.56,0000.80
2024-02-27 05:46:00,SystemResetWarning,0814.8,5.02,000.00,021.9,021.0,000.0,030.3,023.7,16.5,0000.0,0003.97,0001.58,0000.79
2024-02-27 05:47:00,SystemResetWarning,0814.7,5.00,000.00,021.9,021.0,000.0,030.3,023.6,16.6,0000.0,0003.89,0001.54,0000.79
2024-02-27 05:48:00,SystemResetWarning,0814.7,5.00,000.00,021.9,021.0,000.0,030.3,023.7,16.5,0000.0,0004.18,0001.56,0000.80
2024-02-27 05:49:00,SystemResetWarning,0814.6,4.99,000.00,021.9,021.0,000.0,030.3,023.7,16.5,0000.0,0005.03,0001.58,0000.80
2024-02-27 05:50:00,SystemResetWarning,0814.5,4.99,000.00,021.9,021.0,000.0,030.3,023.7,16.5,0000.0,0005.73,0001.63,0000.80
2024-02-27 05:51:00,SystemResetWarning,0814.4,4.99,000.00,021.9,021.0,000.0,030.3,023.7,17.0,0000.0,0006.06,0001.59,0000.80
2024-02-27 05:52:00,SystemResetWarning,0814.3,5.00,000.00,021.9,021.0,000.0,030.3,023.7,17.4,0000.0,0006.65,0001.64,0000.82
2024-02-27 05:53:00,SystemResetWarning,0814.3,5.01,000.00,021.9,021.0,000.0,030.3,023.6,17.5,0000.0,0007.31,0001.74,0000.82
2024-02-27 05:54:00,SystemResetWarning,0814.3,5.01,000.00,021.9,021.0,000.0,030.3,023.6,17.7,0000.0,0007.65,0001.75,0000.82
2024-02-27 05:55:00,SystemResetWarning,0814.3,5.00,000.00,021.9,021.0,000.0,030.3,023.6,17.7,0000.0,0007.58,0001.79,0000.82
2024-02-27 05:56:00,SystemResetWarning,0814.2,5.00,000.00,021.9,021.0,000.0,030.3,023.6,17.8,0000.0,0007.68,0001.86,0000.82
2024-02-27 05:57:00,SystemResetWarning,0814.3,4.99,000.00,021.9,021.0,000.0,030.3,023.6,17.8,0000.0,0007.64,0001.78,0000.82
2024-02-27 05:58:00,SystemResetWarning,0814.3,4.99,000.00,021.9,021.0,000.0,030.2,023.6,17.8,0000.0,0008.08,0001.75,0000.81
2024-02-27 05:59:00,SystemResetWarning,0814.3,5.00,000.00,021.9,021.0,000.0,030.3,023.6,17.7,0000.0,0008.06,0001.77,0000.81
